Weather History for KDET - November, 2013

Change the Weather History Date:

Sunday, November 3, 2013

  Actual Average Record
Temperature  
Mean Temperature 39 °F -  
Max Temperature 43 °F 54 °F 74 °F (1987)
Min Temperature 36 °F 40 °F 16 °F (1951)
Degree Days  
Heating Degree Days 26    
Moisture  
Dew Point 30 °F    
Average Humidity 71    
Maximum Humidity 82    
Minimum Humidity 60    
Precipitation  
Precipitation 0.00 in - - ()
Sea Level Pressure  
Sea Level Pressure 30.35 in    
Wind  
Wind Speed 5 mph (ENE)    
Max Wind Speed 10 mph    
Max Gust Speed -    
Visibility 10 miles    
Events      
Averages and records for this station are not official NWS values.
T = Trace of Precipitation, MM = Missing Value Source: NWS Daily Summary

Daily Weather History Graph

Daily Weather History Graph

Search for Another Location

Airport or City:

Trip Planner

Search our weather history database for the weather conditions in past years. The results will help you decide how hot, cold, wet, or windy it might be!

Date:

Astronomy

Nov. 03, 2013 Rise Set
Actual Time 7:08 AM EST 5:22 PM EST
Civil Twilight 6:38 AM EST 5:51 PM EST
Nautical Twilight 6:05 AM EST 6:25 PM EST
Astronomical Twilight 5:32 AM EST 6:57 PM EST
Moon 7:11 AM EST (11/3) 5:35 PM EST (11/3)
Length of Visible Light 11h 12m
Length of Day
10h 14m
New Moon, 0% of the Moon is Illuminated
Nov 3
New Moon
Nov 10
First Quarter
Nov 17
Full
Nov 25
Last Quarter
Dec 2
New

Hourly Weather History & Observations

Time (EST) Temp. Windchill Dew Point Humidity Pressure Visibility Wind Dir Wind Speed Gust Speed Precip Events Conditions
12:53 AM 37.9 °F 34.4 °F 32.0 °F 79% 30.12 in 10.0 mi North 4.6 mph - N/A   Overcast
1:53 AM 37.9 °F 35.5 °F 32.0 °F 79% 30.14 in 10.0 mi North 3.5 mph - N/A   Overcast
1:53 AM 37.9 °F 35.5 °F 30.9 °F 76% 30.16 in 10.0 mi NNW 3.5 mph - N/A   Mostly Cloudy
2:38 AM 37.4 °F 34.9 °F 32.0 °F 81% 30.17 in 10.0 mi NW 3.5 mph - N/A   Overcast
2:53 AM 37.9 °F 35.5 °F 32.0 °F 79% 30.19 in 10.0 mi NW 3.5 mph - N/A   Overcast
3:53 AM 37.9 °F 35.5 °F 30.9 °F 76% 30.21 in 10.0 mi North 3.5 mph - N/A   Overcast
4:53 AM 37.9 °F 33.5 °F 30.9 °F 76% 30.23 in 10.0 mi North 5.8 mph - N/A   Overcast
5:53 AM 37.9 °F 34.4 °F 32.0 °F 79% 30.26 in 10.0 mi North 4.6 mph - N/A   Overcast
6:53 AM 37.0 °F 32.4 °F 30.9 °F 79% 30.29 in 10.0 mi North 5.8 mph - N/A   Overcast
7:53 AM 37.0 °F 34.5 °F 32.0 °F 82% 30.32 in 10.0 mi North 3.5 mph - N/A   Clear
8:53 AM 39.0 °F 35.7 °F 33.1 °F 79% 30.36 in 10.0 mi NE 4.6 mph - N/A   Clear
9:46 AM 41.0 °F 36.4 °F 30.2 °F 65% 30.35 in 10.0 mi ESE 6.9 mph - N/A   Mostly Cloudy
9:53 AM 41.0 °F 36.4 °F 30.0 °F 65% 30.37 in 10.0 mi East 6.9 mph - N/A   Mostly Cloudy
10:41 AM 42.8 °F 37.0 °F 30.2 °F 61% 30.37 in 10.0 mi ESE 10.4 mph - N/A   Scattered Clouds
10:53 AM 41.0 °F 35.8 °F 30.0 °F 65% 30.40 in 10.0 mi SE 8.1 mph - N/A   Scattered Clouds
11:00 AM 41.0 °F 38.0 °F 30.2 °F 65% 30.38 in 10.0 mi ESE 4.6 mph - N/A   Mostly Cloudy
11:53 AM 41.0 °F 37.1 °F 30.0 °F 65% 30.41 in 10.0 mi East 5.8 mph - N/A   Overcast
12:53 PM 42.1 °F 38.4 °F 30.0 °F 62% 30.40 in 10.0 mi SE 5.8 mph - N/A   Overcast
1:13 PM 42.8 °F 39.3 °F 30.2 °F 61% 30.38 in 10.0 mi SE 5.8 mph - N/A   Overcast
1:53 PM 42.1 °F 38.4 °F 30.0 °F 62% 30.40 in 10.0 mi ESE 5.8 mph - N/A   Overcast
2:28 PM 42.8 °F 38.6 °F 30.2 °F 61% 30.39 in 10.0 mi East 6.9 mph - N/A   Overcast
2:53 PM 42.1 °F 37.7 °F 28.9 °F 60% 30.41 in 10.0 mi East 6.9 mph - N/A   Mostly Cloudy
3:53 PM 41.0 °F 38.0 °F 28.9 °F 62% 30.42 in 10.0 mi ENE 4.6 mph - N/A   Partly Cloudy
4:53 PM 39.9 °F 36.7 °F 28.9 °F 65% 30.42 in 10.0 mi ENE 4.6 mph - N/A   Clear
5:53 PM 39.9 °F - 28.9 °F 65% 30.43 in 10.0 mi Calm Calm - N/A   Clear
6:53 PM 37.0 °F - 30.0 °F 76% 30.45 in 10.0 mi Calm Calm - N/A   Clear
7:53 PM 36.0 °F - 30.0 °F 79% 30.46 in 10.0 mi Calm Calm - N/A   Mostly Cloudy
8:39 PM 37.4 °F 34.9 °F 30.2 °F 75% 30.44 in 10.0 mi SE 3.5 mph - N/A   Mostly Cloudy
8:53 PM 37.0 °F 34.5 °F 30.0 °F 76% 30.47 in 10.0 mi ESE 3.5 mph - N/A   Scattered Clouds
9:53 PM 36.0 °F 33.3 °F 28.9 °F 76% 30.46 in 10.0 mi East 3.5 mph - N/A   Clear
10:53 PM 37.0 °F 32.4 °F 28.0 °F 70% 30.47 in 10.0 mi East 5.8 mph - N/A   Clear